GW7189 Weather Reports


time (UTC)temp
F
wind
direction
speed
knots
gust
knots
rain 1hr
in
rain 24hr
in
rain mn
in
humidity
%
barometer
mb
20260504050553 53 195 0.9 1.7 0.00 0.00 0.00 50 1002.0
20260504045553 52 283 0.0 0.0 0.00 0.00 0.00 54 1002.2
20260504045053 51 323 0.0 0.0 0.00 0.00 0.00 55 1002.2
20260504044552 51 263 0.0 0.9 0.00 0.00 0.00 56 1002.3
20260504044052 51 254 0.0 0.0 0.00 0.00 0.00 62 1002.5
20260504043553 51 298 0.0 0.0 0.00 0.00 0.00 60 1002.5
20260504043054 51 0 0.0 0.0 0.00 0.00 0.00 59 1002.6
20260504042553 51 0 0.0 0.0 0.00 0.00 0.00 58 1002.7
20260504042052 51 0 0.0 0.0 0.00 0.00 0.00 56 1002.7
20260504041552 51 281 0.0 0.0 0.00 0.00 0.00 58 1002.8
20260504041052 51 0 0.0 0.0 0.00 0.00 0.00 57 1003.0
20260504040553 52 0 0.0 0.0 0.00 0.00 0.00 56 1003.0
20260504040054 52 313 0.0 0.0 0.00 0.00 0.00 56 1003.2
20260504035552 52 274 0.0 0.0 0.00 0.00 0.00 56 1003.3
20260504035052 52 0 0.0 0.0 0.00 0.00 0.00 56 1003.4
20260504034553 53 0 0.0 0.0 0.00 0.00 0.00 55 1003.5
20260504034053 53 0 0.0 0.0 0.00 0.00 0.00 54 1003.6
20260504033553 53 0 0.0 0.0 0.00 0.00 0.00 54 1003.6
20260504033055 53 0 0.0 0.0 0.00 0.00 0.00 53 1003.7
20260504032553 54 224 0.0 0.0 0.00 0.00 0.00 53 1003.7
20260504032053 54 0 0.0 0.0 0.00 0.00 0.00 53 1003.8
20260504031554 55 0 0.0 0.0 0.00 0.00 0.00 52 1003.8
20260504031053 55 206 0.0 0.9 0.00 0.00 0.00 51 1003.8
20260504030553 55 316 0.0 0.9 0.00 0.00 0.00 50 1003.9
20260504030057 56 100 0.0 0.0 0.00 0.00 0.00 50 1004.0
20260504025553 56 254 0.0 0.9 0.00 0.00 0.00 49 1004.0
20260504025053 56 234 0.0 0.9 0.00 0.00 0.00 48 1004.0
20260504024553 57 354 0.0 0.9 0.00 0.00 0.00 48 1004.1
20260504024053 57 0 0.0 0.0 0.00 0.00 0.00 47 1004.1
20260504023553 58 294 0.0 0.9 0.00 0.00 0.00 46 1004.1
20260504023055 58 284 0.0 0.9 0.00 0.00 0.00 46 1004.1
20260504022553 59 0 0.0 0.0 0.00 0.00 0.00 47 1004.1
20260504022053 60 0 0.0 0.0 0.00 0.00 0.00 54 1004.1
20260504021553 61 10 0.0 0.0 0.00 0.00 0.00 53 1004.1
20260504021054 62 269 0.0 0.0 0.00 0.00 0.00 54 1004.1
20260504020553 62 292 0.0 0.0 0.00 0.00 0.00 52 1004.1
20260504020056 63 162 0.0 0.0 0.00 0.00 0.00 44 1004.0
20260504015553 64 191 0.0 0.9 0.00 0.00 0.00 44 1004.1
20260504015054 64 248 0.0 0.9 0.00 0.00 0.00 35 1004.1
20260504014554 65 233 0.9 1.7 0.00 0.00 0.00 34 1004.1
20260504014054 65 230 0.9 1.7 0.00 0.00 0.00 34 1004.2
20260504013553 65 227 0.9 1.7 0.00 0.00 0.00 34 1004.2
20260504013056 65 228 0.9 2.6 0.00 0.00 0.00 35 1004.3
20260504012553 66 234 0.9 1.7 0.00 0.00 0.00 33 1004.3
20260504012055 66 232 1.7 2.6 0.00 0.00 0.00 33 1004.3
20260504011554 66 225 0.9 1.7 0.00 0.00 0.00 33 1004.3
20260504011054 67 231 0.9 1.7 0.00 0.00 0.00 33 1004.3
20260504010553 67 244 1.7 2.6 0.00 0.00 0.00 32 1004.3
20260504010059 67 284 1.7 2.6 0.00 0.00 0.00 33 1004.3
20260504005554 67 248 1.7 2.6 0.00 0.00 0.00 32 1004.3
20260504005055 67 258 0.9 1.7 0.00 0.00 0.00 32 1004.4
20260504004555 67 258 2.6 5.2 0.00 0.00 0.00 31 1004.4
20260504004055 68 263 1.7 2.6 0.00 0.00 0.00 31 1004.4
20260504003553 68 250 1.7 3.5 0.00 0.00 0.00 31 1004.3
20260504003058 68 265 0.9 2.6 0.00 0.00 0.00 31 1004.3
20260504002554 68 242 0.9 1.7 0.00 0.00 0.00 33 1004.4
20260504002055 68 258 2.6 5.2 0.00 0.00 0.00 31 1004.4
20260504001556 68 310 1.7 3.5 0.00 0.00 0.00 32 1004.5
20260504001054 68 287 0.9 1.7 0.00 0.00 0.00 32 1004.5
20260504000554 68 319 1.7 2.6 0.00 0.00 0.00 31 1004.5
20260504000100 68 312 1.7 2.6 0.00 0.00 0.00 31 1004.5
20260503235554 69 298 2.6 3.5 0.00 0.00 0.00 30 1004.5
20260503235054 69 324 2.6 4.3 0.00 0.00 0.00 30 1004.5
20260503234555 69 257 3.5 4.3 0.00 0.00 0.00 29 1004.4
20260503234055 69 284 3.5 5.2 0.00 0.00 0.00 30 1004.5
20260503233554 69 267 4.3 7.0 0.00 0.00 0.00 29 1004.5
20260503233056 69 285 1.7 3.5 0.00 0.00 0.00 30 1004.7
20260503232554 69 302 3.5 5.2 0.00 0.00 0.00 30 1004.8
20260503232055 69 273 3.5 6.1 0.00 0.00 0.00 30 1004.9
20260503231554 69 320 3.5 4.3 0.00 0.00 0.00 31 1004.9
20260503231055 69 315 4.3 5.2 0.00 0.00 0.00 29 1004.9
20260503230554 69 301 2.6 4.3 0.00 0.00 0.00 30 1004.9
20260503230100 69 289 2.6 3.5 0.00 0.00 0.00 30 1004.9
20260503225554 69 277 2.6 4.3 0.00 0.00 0.00 30 1004.9
20260503225054 69 284 3.5 5.2 0.00 0.00 0.00 29 1005.0
20260503224555 69 288 3.5 5.2 0.00 0.00 0.00 29 1005.1
20260503224054 69 261 2.6 3.5 0.00 0.00 0.00 28 1005.0
20260503223554 69 274 4.3 6.1 0.00 0.00 0.00 28 1005.1
20260503223059 69 8 1.7 4.3 0.00 0.00 0.00 30 1005.1
20260503222553 69 308 4.3 7.0 0.00 0.00 0.00 30 1005.1
20260503222054 69 295 1.7 3.5 0.00 0.00 0.00 32 1005.1
20260503221555 69 293 2.6 3.5 0.00 0.00 0.00 32 1005.1
20260503221055 69 305 2.6 3.5 0.00 0.00 0.00 33 1005.2
20260503220554 69 289 3.5 5.2 0.00 0.00 0.00 31 1005.2
20260503215554 69 311 3.5 6.1 0.00 0.00 0.00 31 1005.2
20260503215055 69 320 4.3 7.0 0.00 0.00 0.00 31 1005.2
20260503214555 69 342 2.6 5.2 0.00 0.00 0.00 31 1005.2
20260503214056 69 323 3.5 4.3 0.00 0.00 0.00 32 1005.2
20260503213553 69 293 3.5 5.2 0.00 0.00 0.00 33 1005.2
20260503213059 69 308 3.5 5.2 0.00 0.00 0.00 33 1005.2
20260503212554 69 272 3.5 5.2 0.00 0.00 0.00 33 1005.3
20260503212056 69 317 3.5 6.1 0.00 0.00 0.00 34 1005.3
20260503211555 69 358 1.7 5.2 0.00 0.00 0.00 34 1005.3
20260503211056 69 287 3.5 4.3 0.00 0.00 0.00 35 1005.3
20260503210554 69 287 4.3 6.1 0.00 0.00 0.00 34 1005.3
20260503210058 69 288 2.6 3.5 0.00 0.00 0.00 35 1005.4
20260503205554 69 302 4.3 7.0 0.00 0.00 0.00 33 1005.3
20260503205056 69 293 3.5 6.1 0.00 0.00 0.00 33 1005.4
20260503204557 68 276 0.0 0.9 0.00 0.00 0.00 33 1005.5
20260503204058 68 5 2.6 6.1 0.00 0.00 0.00 31 1005.6
20260503203556 68 287 4.3 7.8 0.00 0.00 0.00 32 1005.6
20260503203102 68 314 2.6 5.2 0.00 0.00 0.00 32 1005.7
20260503202559 68 301 4.3 7.8 0.00 0.00 0.00 32 1005.8
20260503202100 68 307 3.5 4.3 0.00 0.00 0.00 32 1005.7
20260503201558 68 298 3.5 6.1 0.00 0.00 0.00 32 1005.8
20260503201058 68 347 0.9 2.6 0.00 0.00 0.00 31 1005.8
20260503200113 68 299 3.5 4.3 0.00 0.00 0.00 32 1005.9
20260503195558 68 315 3.5 4.3 0.00 0.00 0.00 30 1006.0
20260503195102 68 280 2.6 4.3 0.00 0.00 0.00 32 1006.1
20260503194600 68 287 4.3 6.1 0.00 0.00 0.00 32 1006.2
20260503194058 67 355 2.6 4.3 0.00 0.00 0.00 33 1006.1
20260503193558 68 291 4.3 6.1 0.00 0.00 0.00 33 1006.2
20260503193108 69 300 1.7 3.5 0.00 0.00 0.00 32 1006.1
20260503192600 68 13 1.7 4.3 0.00 0.00 0.00 34 1006.1
20260503192102 68 311 3.5 4.3 0.00 0.00 0.00 33 1006.1
20260503191601 68 354 2.6 4.3 0.00 0.00 0.00 33 1006.2
20260503191101 68 335 3.5 4.3 0.00 0.00 0.00 33 1006.1
20260503190109 67 291 0.9 2.6 0.00 0.00 0.00 38 1006.2
20260503185559 67 327 5.2 8.7 0.00 0.00 0.00 36 1006.2
20260503185102 67 326 1.7 3.5 0.00 0.00 0.00 38 1006.2
20260503184602 67 287 2.6 6.1 0.00 0.00 0.00 39 1006.3
20260503184102 67 281 3.5 4.3 0.00 0.00 0.00 40 1006.3
20260503183558 67 296 3.5 4.3 0.00 0.00 0.00 41 1006.3
20260503183102 67 303 4.3 7.0 0.00 0.00 0.00 40 1006.3
20260503182559 67 279 3.5 4.3 0.00 0.00 0.00 38 1006.3
20260503182102 67 313 4.3 7.0 0.00 0.00 0.00 39 1006.3
20260503181559 66 284 2.6 4.3 0.00 0.00 0.00 40 1006.3
20260503181102 67 259 5.2 7.0 0.00 0.00 0.00 40 1006.3
20260503180601 67 279 3.5 5.2 0.00 0.00 0.00 39 1006.4
20260503180104 67 320 1.7 3.5 0.00 0.00 0.00 39 1006.5
20260503175600 66 27 1.7 3.5 0.00 0.00 0.00 42 1006.5
20260503175100 66 348 1.7 4.3 0.00 0.00 0.00 42 1006.6
20260503174559 66 319 3.5 6.1 0.00 0.00 0.00 41 1006.5
20260503174100 66 294 4.3 7.0 0.00 0.00 0.00 42 1006.6
20260503173559 66 286 3.5 5.2 0.00 0.00 0.00 44 1006.6
20260503173106 66 315 2.6 3.5 0.00 0.00 0.00 42 1006.6
20260503172558 66 43 1.7 1.7 0.00 0.00 0.00 43 1006.6
20260503172104 66 348 1.7 3.5 0.00 0.00 0.00 42 1006.6
20260503171604 65 325 3.5 5.2 0.00 0.00 0.00 41 1006.8
20260503171100 65 304 3.5 6.1 0.00 0.00 0.00 42 1006.8
20260503170118 65 284 3.5 6.1 0.00 0.00 0.00 41 1006.9
20260503160107 64 329 2.6 5.2 0.00 0.00 0.00 43 1006.6
20260503150557 61 48 0.9 3.5 0.00 0.00 0.00 48 1006.3
20260503150106 61 333 1.7 3.5 0.00 0.00 0.00 48 1006.3
20260503140112 57 305 3.5 3.5 0.00 0.00 0.00 52 1006.1
20260503131101 55 295 1.7 3.5 0.00 0.00 0.00 53 1005.6
20260503130558 55 311 1.7 2.6 0.00 0.00 0.00 53 1005.6
20260503120104 50 224 0.0 0.9 0.00 0.00 0.00 64 1005.0
20260503110109 51 0 0.0 0.0 0.00 0.00 0.00 57 1004.7
20260503081556 59 192 2.6 3.5 0.00 0.00 0.00 46 1005.6
20260503081056 59 203 2.6 3.5 0.00 0.00 0.00 46 1005.7
20260503080556 59 230 1.7 3.5 0.00 0.00 0.00 46 1005.7
20260503072553 59 215 0.9 2.6 0.00 0.00 0.00 48 1006.3
20260503072053 59 214 1.7 2.6 0.00 0.00 0.00 47 1006.4
20260503071553 59 226 1.7 2.6 0.00 0.00 0.00 48 1006.5
20260503071053 58 219 1.7 2.6 0.00 0.00 0.00 49 1006.6
20260503070553 57 206 2.6 3.5 0.00 0.00 0.00 51 1006.7
20260503055053 56 218 0.9 1.7 0.00 0.00 0.00 50 1008.0
20260503054553 56 225 1.7 2.6 0.00 0.00 0.00 50 1008.0
20260503054053 56 203 1.7 2.6 0.00 0.00 0.00 50 1008.2
20260503053553 56 228 1.7 3.5 0.00 0.00 0.00 50 1008.4
20260503053054 57 215 1.7 2.6 0.00 0.00 0.00 50 1008.2
20260503052553 57 212 0.9 1.7 0.00 0.00 0.00 49 1008.1
20260503052053 57 217 0.9 2.6 0.00 0.00 0.00 49 1008.1
20260503051553 57 205 0.9 2.6 0.00 0.00 0.00 49 1008.2